User: anonymous   Login
Location: ?????
(54.9266°N, 38.5527°E)
Time: 20:55:45
(UTC+00:00)
Language:

Cosmos 1743 - Orbit

View from above orbital plane
View from above orbital plane
View from above satellite
View from above satellite

Ground track
Ground track

The orbit data is extracted from the following two-line orbital elements,

1 16719U 86034A   24170.57164453  .00008113  00000-0  29474-3 0  9996
2 16719  82.5457 356.3072 0010229  33.6997 326.4891 15.28080654 83355
Epoch (UTC): 18 June 2024 13:43:10
Eccentricity: 0.0010229
inclination: 82.5457°
perigee height: 474 km
apogee height: 488 km
right ascension of ascending node: 356.3072°
argument of perigee: 33.6997°
revolutions per day: 15.28080654
mean anomaly at epoch: 326.4891°
orbit number at epoch: 8335

The dashed part of the orbit path shows where the satellite is in the earth's shadow,  

DLR